iso_date,epoch_date,Year,Hour,Min,DOY,POS_DOY,Lat,Lon,BP,Ts,Ta,has_bp,has_ts,has_ta,BuoyID,Buoy_Type,Buoy_Owner,Logistics,Hemisphere
2014-07-24T22:00:28Z,1406239229,2014,22,0,205.917,205.917,72.91834,-139.8093,1002.9,-0.89,-999.0,yes,yes,no,300234061639650,UPTEMPO,PSC-UPTEMPO,SIZRS,North
2014-07-24T22:59:31Z,1406242771,2014,23,0,205.958,205.958,72.91194,-139.8084,1003.0,-0.76,-999.0,yes,yes,no,300234061639650,UPTEMPO,PSC-UPTEMPO,SIZRS,North
2014-07-25T00:00:00Z,1406246400,2014,0,0,206.0,206.0,72.90565,-139.8163,1003.2,-0.76,-999.0,yes,yes,no,300234061639650,UPTEMPO,PSC-UPTEMPO,SIZRS,North
2014-07-25T01:00:28Z,1406250029,2014,1,0,206.042,206.042,72.89724,-139.8569,1003.7,-0.79,-999.0,yes,yes,no,300234061639650,UPTEMPO,PSC-UPTEMPO,SIZRS,North
2014-07-25T01:59:31Z,1406253571,2014,2,0,206.083,206.083,72.89544,-139.8915,1004.3,-0.77,-999.0,yes,yes,no,300234061639650,UPTEMPO,PSC-UPTEMPO,SIZRS,North
2014-07-25T03:00:00Z,1406257200,2014,3,0,206.125,206.125,72.89838,-139.932,1004.8,-0.77,-999.0,yes,yes,no,300234061639650,UPTEMPO,PSC-UPTEMPO,SIZRS,North
2014-07-25T04:00:28Z,1406260829,2014,4,0,206.167,206.167,72.90582,-139.9628,1005.1,-0.79,-999.0,yes,yes,no,300234061639650,UPTEMPO,PSC-UPTEMPO,SIZRS,North
2014-07-25T04:59:31Z,1406264371,2014,5,0,206.208,206.208,72.91617,-139.9763,1005.4,-0.87,-999.0,yes,yes,no,300234061639650,UPTEMPO,PSC-UPTEMPO,SIZRS,North
2014-07-25T06:00:00Z,1406268000,2014,6,0,206.25,206.25,72.9268,-139.969,1005.9,-0.9,-999.0,yes,yes,no,300234061639650,UPTEMPO,PSC-UPTEMPO,SIZRS,North
2014-07-25T07:00:28Z,1406271629,2014,7,0,206.292,206.292,72.93424,-139.9454,1006.3,-0.87,-999.0,yes,yes,no,300234061639650,UPTEMPO,PSC-UPTEMPO,SIZRS,North
2014-07-25T07:59:31Z,1406275171,2014,8,0,206.333,206.333,72.93639,-139.9105,1007.0,-0.85,-999.0,yes,yes,no,300234061639650,UPTEMPO,PSC-UPTEMPO,SIZRS,North
2014-07-25T09:00:00Z,1406278800,2014,9,0,206.375,206.375,72.93356,-139.872,1007.6,-0.84,-999.0,yes,yes,no,300234061639650,UPTEMPO,PSC-UPTEMPO,SIZRS,North
2014-07-25T10:00:28Z,1406282429,2014,10,0,206.417,206.417,72.92627,-139.8384,1008.0,-0.85,-999.0,yes,yes,no,300234061639650,UPTEMPO,PSC-UPTEMPO,SIZRS,North
2014-07-25T10:59:31Z,1406285971,2014,11,0,206.458,206.458,72.91563,-139.8177,1008.6,-0.69,-999.0,yes,yes,no,300234061639650,UPTEMPO,PSC-UPTEMPO,SIZRS,North
2014-07-25T12:00:00Z,1406289600,2014,12,0,206.5,206.5,72.90403,-139.8128,1009.4,-0.73,-999.0,yes,yes,no,300234061639650,UPTEMPO,PSC-UPTEMPO,SIZRS,North
2014-07-25T13:00:28Z,1406293229,2014,13,0,206.542,206.542,72.89314,-139.8245,1010.1,-0.73,-999.0,yes,yes,no,300234061639650,UPTEMPO,PSC-UPTEMPO,SIZRS,North
2014-07-25T13:59:31Z,1406296771,2014,14,0,206.583,206.583,72.88515,-139.8499,1010.6,-0.71,-999.0,yes,yes,no,300234061639650,UPTEMPO,PSC-UPTEMPO,SIZRS,North
2014-07-25T15:00:00Z,1406300400,2014,15,0,206.625,206.625,72.88176,-139.8824,1011.5,-0.78,-999.0,yes,yes,no,300234061639650,UPTEMPO,PSC-UPTEMPO,SIZRS,North
2014-07-25T16:00:28Z,1406304029,2014,16,0,206.667,206.667,72.88288,-139.915,1012.3,-0.78,-999.0,yes,yes,no,300234061639650,UPTEMPO,PSC-UPTEMPO,SIZRS,North
2014-07-25T16:59:31Z,1406307571,2014,17,0,206.708,206.708,72.88813,-139.9384,1013.2,-0.75,-999.0,yes,yes,no,300234061639650,UPTEMPO,PSC-UPTEMPO,SIZRS,North
2014-07-25T18:00:00Z,1406311200,2014,18,0,206.75,206.75,72.89533,-139.9455,1014.1,-0.73,-999.0,yes,yes,no,300234061639650,UPTEMPO,PSC-UPTEMPO,SIZRS,North
2014-07-25T19:00:28Z,1406314829,2014,19,0,206.792,206.792,72.90063,-139.9399,1015.0,-0.62,-999.0,yes,yes,no,300234061639650,UPTEMPO,PSC-UPTEMPO,SIZRS,North
2014-07-25T19:59:31Z,1406318371,2014,20,0,206.833,206.833,72.9009,-139.9323,1015.9,-0.71,-999.0,yes,yes,no,300234061639650,UPTEMPO,PSC-UPTEMPO,SIZRS,North
2014-07-25T21:00:00Z,1406322000,2014,21,0,206.875,206.875,72.89979,-139.9204,1016.2,-0.73,-999.0,yes,yes,no,300234061639650,UPTEMPO,PSC-UPTEMPO,SIZRS,North
2014-07-25T22:00:28Z,1406325629,2014,22,0,206.917,206.917,72.89584,-139.9095,1017.0,-0.7,-999.0,yes,yes,no,300234061639650,UPTEMPO,PSC-UPTEMPO,SIZRS,North
2014-07-25T22:59:31Z,1406329171,2014,23,0,206.958,206.958,72.88846,-139.8935,1017.5,-0.7,-999.0,yes,yes,no,300234061639650,UPTEMPO,PSC-UPTEMPO,SIZRS,North
2014-07-26T00:00:00Z,1406332800,2014,0,0,207.0,207.0,72.87779,-139.8853,1018.2,-0.77,-999.0,yes,yes,no,300234061639650,UPTEMPO,PSC-UPTEMPO,SIZRS,North
2014-07-26T01:00:28Z,1406336429,2014,1,0,207.042,207.042,72.86659,-139.8938,1018.9,-0.72,-999.0,yes,yes,no,300234061639650,UPTEMPO,PSC-UPTEMPO,SIZRS,North
2014-07-26T01:59:31Z,1406339971,2014,2,0,207.083,207.083,72.85662,-139.9165,1019.0,-0.74,-999.0,yes,yes,no,300234061639650,UPTEMPO,PSC-UPTEMPO,SIZRS,North
2014-07-26T03:00:00Z,1406343600,2014,3,0,207.125,207.125,72.8501,-139.953,1019.5,-0.74,-999.0,yes,yes,no,300234061639650,UPTEMPO,PSC-UPTEMPO,SIZRS,North
2014-07-26T04:00:28Z,1406347229,2014,4,0,207.167,207.167,72.84866,-139.9843,1019.9,-0.69,-999.0,yes,yes,no,300234061639650,UPTEMPO,PSC-UPTEMPO,SIZRS,North
2014-07-26T04:59:31Z,1406350771,2014,5,0,207.208,207.208,72.85104,-140.0159,1020.4,-0.87,-999.0,yes,yes,no,300234061639650,UPTEMPO,PSC-UPTEMPO,SIZRS,North
2014-07-26T06:00:00Z,1406354400,2014,6,0,207.25,207.25,72.85603,-140.0408,1020.7,-0.83,-999.0,yes,yes,no,300234061639650,UPTEMPO,PSC-UPTEMPO,SIZRS,North
2014-07-26T07:00:28Z,1406358029,2014,7,0,207.292,207.292,72.86061,-140.0509,1021.0,-0.79,-999.0,yes,yes,no,300234061639650,UPTEMPO,PSC-UPTEMPO,SIZRS,North
2014-07-26T07:59:31Z,1406361571,2014,8,0,207.333,207.333,72.86446,-140.0497,1021.2,-0.85,-999.0,yes,yes,no,300234061639650,UPTEMPO,PSC-UPTEMPO,SIZRS,North
2014-07-26T09:00:00Z,1406365200,2014,9,0,207.375,207.375,72.86906,-140.0381,1021.3,-0.88,-999.0,yes,yes,no,300234061639650,UPTEMPO,PSC-UPTEMPO,SIZRS,North
2014-07-26T10:00:28Z,1406368829,2014,10,0,207.417,207.417,72.87016,-140.0205,1021.4,-0.86,-999.0,yes,yes,no,300234061639650,UPTEMPO,PSC-UPTEMPO,SIZRS,North
2014-07-26T10:59:31Z,1406372371,2014,11,0,207.458,207.458,72.86703,-140.0175,1021.2,-0.8,-999.0,yes,yes,no,300234061639650,UPTEMPO,PSC-UPTEMPO,SIZRS,North
2014-07-26T12:00:00Z,1406376000,2014,12,0,207.5,207.5,72.85932,-140.0138,1021.6,-1.31,-999.0,yes,yes,no,300234061639650,UPTEMPO,PSC-UPTEMPO,SIZRS,North
2014-07-26T13:00:28Z,1406379629,2014,13,0,207.542,207.542,72.85298,-140.0227,1021.6,-0.82,-999.0,yes,yes,no,300234061639650,UPTEMPO,PSC-UPTEMPO,SIZRS,North
2014-07-26T13:59:31Z,1406383171,2014,14,0,207.583,207.583,72.84778,-140.0405,1021.6,-0.81,-999.0,yes,yes,no,300234061639650,UPTEMPO,PSC-UPTEMPO,SIZRS,North
2014-07-26T15:00:00Z,1406386800,2014,15,0,207.625,207.625,72.84155,-140.077,1021.5,-0.79,-999.0,yes,yes,no,300234061639650,UPTEMPO,PSC-UPTEMPO,SIZRS,North
2014-07-26T16:00:28Z,1406390429,2014,16,0,207.667,207.667,72.83935,-140.1157,1021.4,-0.78,-999.0,yes,yes,no,300234061639650,UPTEMPO,PSC-UPTEMPO,SIZRS,North
2014-07-26T16:59:31Z,1406393971,2014,17,0,207.708,207.708,72.84047,-140.1412,1021.5,-0.77,-999.0,yes,yes,no,300234061639650,UPTEMPO,PSC-UPTEMPO,SIZRS,North
2014-07-26T18:00:00Z,1406397600,2014,18,0,207.75,207.75,72.84327,-140.1625,1021.4,-0.77,-999.0,yes,yes,no,300234061639650,UPTEMPO,PSC-UPTEMPO,SIZRS,North
2014-07-26T19:00:28Z,1406401229,2014,19,0,207.792,207.792,72.84699,-140.1763,1021.0,-0.79,-999.0,yes,yes,no,300234061639650,UPTEMPO,PSC-UPTEMPO,SIZRS,North
2014-07-26T19:59:31Z,1406404771,2014,20,0,207.833,207.833,72.85024,-140.1837,1020.8,-0.83,-999.0,yes,yes,no,300234061639650,UPTEMPO,PSC-UPTEMPO,SIZRS,North
2014-07-26T21:00:00Z,1406408400,2014,21,0,207.875,207.875,72.8518,-140.1869,1020.8,-0.89,-999.0,yes,yes,no,300234061639650,UPTEMPO,PSC-UPTEMPO,SIZRS,North
2014-07-26T22:00:28Z,1406412029,2014,22,0,207.917,207.917,72.85193,-140.1876,1020.8,-0.94,-999.0,yes,yes,no,300234061639650,UPTEMPO,PSC-UPTEMPO,SIZRS,North
2014-07-26T22:59:31Z,1406415571,2014,23,0,207.958,207.958,72.85035,-140.188,1020.9,-0.98,-999.0,yes,yes,no,300234061639650,UPTEMPO,PSC-UPTEMPO,SIZRS,North
2014-07-27T00:00:00Z,1406419200,2014,0,0,208.0,208.0,72.84694,-140.1926,1020.9,-0.97,-999.0,yes,yes,no,300234061639650,UPTEMPO,PSC-UPTEMPO,SIZRS,North
2014-07-27T01:00:28Z,1406422829,2014,1,0,208.042,208.042,72.84274,-140.202,1021.0,-0.97,-999.0,yes,yes,no,300234061639650,UPTEMPO,PSC-UPTEMPO,SIZRS,North
2014-07-27T01:59:31Z,1406426371,2014,2,0,208.083,208.083,72.83878,-140.2175,1021.0,-0.95,-999.0,yes,yes,no,300234061639650,UPTEMPO,PSC-UPTEMPO,SIZRS,North
2014-07-27T03:00:00Z,1406430000,2014,3,0,208.125,208.125,72.83512,-140.2418,1020.8,-0.99,-999.0,yes,yes,no,300234061639650,UPTEMPO,PSC-UPTEMPO,SIZRS,North
2014-07-27T04:00:28Z,1406433629,2014,4,0,208.167,208.167,72.8309,-140.281,1021.0,-1.0,-999.0,yes,yes,no,300234061639650,UPTEMPO,PSC-UPTEMPO,SIZRS,North
2014-07-27T04:59:31Z,1406437171,2014,5,0,208.208,208.208,72.83007,-140.3237,1021.1,-0.97,-999.0,yes,yes,no,300234061639650,UPTEMPO,PSC-UPTEMPO,SIZRS,North
2014-07-27T06:00:00Z,1406440800,2014,6,0,208.25,208.25,72.83273,-140.3613,1021.3,-1.07,-999.0,yes,yes,no,300234061639650,UPTEMPO,PSC-UPTEMPO,SIZRS,North
2014-07-27T07:00:28Z,1406444429,2014,7,0,208.292,208.292,72.83856,-140.3875,1021.6,-0.86,-999.0,yes,yes,no,300234061639650,UPTEMPO,PSC-UPTEMPO,SIZRS,North
2014-07-27T07:59:31Z,1406447971,2014,8,0,208.333,208.333,72.84436,-140.3999,1021.7,-0.91,-999.0,yes,yes,no,300234061639650,UPTEMPO,PSC-UPTEMPO,SIZRS,North
2014-07-27T09:00:00Z,1406451600,2014,9,0,208.375,208.375,72.84953,-140.4056,1022.0,-1.29,-999.0,yes,yes,no,300234061639650,UPTEMPO,PSC-UPTEMPO,SIZRS,North
2014-07-27T10:00:28Z,1406455229,2014,10,0,208.417,208.417,72.85253,-140.4028,1022.0,-1.32,-999.0,yes,yes,no,300234061639650,UPTEMPO,PSC-UPTEMPO,SIZRS,North
2014-07-27T10:59:31Z,1406458771,2014,11,0,208.458,208.458,72.8522,-140.3951,1022.4,-1.34,-999.0,yes,yes,no,300234061639650,UPTEMPO,PSC-UPTEMPO,SIZRS,North
2014-07-27T12:00:00Z,1406462400,2014,12,0,208.5,208.5,72.84846,-140.3884,1022.8,-1.31,-999.0,yes,yes,no,300234061639650,UPTEMPO,PSC-UPTEMPO,SIZRS,North
2014-07-27T13:00:28Z,1406466029,2014,13,0,208.542,208.542,72.84347,-140.3903,1023.2,-0.97,-999.0,yes,yes,no,300234061639650,UPTEMPO,PSC-UPTEMPO,SIZRS,North
2014-07-27T13:59:31Z,1406469571,2014,14,0,208.583,208.583,72.83587,-140.401,1023.4,-1.02,-999.0,yes,yes,no,300234061639650,UPTEMPO,PSC-UPTEMPO,SIZRS,North
2014-07-27T15:00:00Z,1406473200,2014,15,0,208.625,208.625,72.8291,-140.4242,1023.8,-0.91,-999.0,yes,yes,no,300234061639650,UPTEMPO,PSC-UPTEMPO,SIZRS,North
2014-07-27T16:00:28Z,1406476829,2014,16,0,208.667,208.667,72.824,-140.461,1024.0,-0.77,-999.0,yes,yes,no,300234061639650,UPTEMPO,PSC-UPTEMPO,SIZRS,North
2014-07-27T16:59:31Z,1406480371,2014,17,0,208.708,208.708,72.82231,-140.5026,1024.3,-0.8,-999.0,yes,yes,no,300234061639650,UPTEMPO,PSC-UPTEMPO,SIZRS,North
2014-07-27T18:00:00Z,1406484000,2014,18,0,208.75,208.75,72.82606,-140.5388,1024.7,-0.92,-999.0,yes,yes,no,300234061639650,UPTEMPO,PSC-UPTEMPO,SIZRS,North
2014-07-27T19:00:28Z,1406487629,2014,19,0,208.792,208.792,72.83363,-140.5663,1025.1,-0.87,-999.0,yes,yes,no,300234061639650,UPTEMPO,PSC-UPTEMPO,SIZRS,North
2014-07-27T19:59:31Z,1406491171,2014,20,0,208.833,208.833,72.84335,-140.5834,1025.2,-1.03,-999.0,yes,yes,no,300234061639650,UPTEMPO,PSC-UPTEMPO,SIZRS,North
2014-07-27T21:00:00Z,1406494800,2014,21,0,208.875,208.875,72.85311,-140.5878,1025.5,-0.92,-999.0,yes,yes,no,300234061639650,UPTEMPO,PSC-UPTEMPO,SIZRS,North
2014-07-27T22:00:28Z,1406498429,2014,22,0,208.917,208.917,72.86055,-140.5801,1025.6,-0.79,-999.0,yes,yes,no,300234061639650,UPTEMPO,PSC-UPTEMPO,SIZRS,North
2014-07-27T22:59:31Z,1406501971,2014,23,0,208.958,208.958,72.86469,-140.5668,1025.7,-0.88,-999.0,yes,yes,no,300234061639650,UPTEMPO,PSC-UPTEMPO,SIZRS,North
2014-07-28T00:00:00Z,1406505600,2014,0,0,209.0,209.0,72.86577,-140.5526,1025.8,-0.87,-999.0,yes,yes,no,300234061639650,UPTEMPO,PSC-UPTEMPO,SIZRS,North
2014-07-28T01:00:28Z,1406509229,2014,1,0,209.042,209.042,72.86385,-140.5434,1025.7,-1.05,-999.0,yes,yes,no,300234061639650,UPTEMPO,PSC-UPTEMPO,SIZRS,North
2014-07-28T01:59:31Z,1406512771,2014,2,0,209.083,209.083,72.85949,-140.5455,1025.9,-0.96,-999.0,yes,yes,no,300234061639650,UPTEMPO,PSC-UPTEMPO,SIZRS,North
2014-07-28T03:00:00Z,1406516400,2014,3,0,209.125,209.125,72.85448,-140.5601,1026.0,-1.13,-999.0,yes,yes,no,300234061639650,UPTEMPO,PSC-UPTEMPO,SIZRS,North
2014-07-28T04:00:28Z,1406520029,2014,4,0,209.167,209.167,72.85086,-140.5833,1025.9,-0.75,-999.0,yes,yes,no,300234061639650,UPTEMPO,PSC-UPTEMPO,SIZRS,North
2014-07-28T04:59:31Z,1406523571,2014,5,0,209.208,209.208,72.84959,-140.6142,1025.9,-0.78,-999.0,yes,yes,no,300234061639650,UPTEMPO,PSC-UPTEMPO,SIZRS,North
2014-07-28T06:00:00Z,1406527200,2014,6,0,209.25,209.25,72.85202,-140.6486,1025.8,-1.15,-999.0,yes,yes,no,300234061639650,UPTEMPO,PSC-UPTEMPO,SIZRS,North
2014-07-28T07:00:28Z,1406530829,2014,7,0,209.292,209.292,72.85806,-140.6804,1025.7,-1.12,-999.0,yes,yes,no,300234061639650,UPTEMPO,PSC-UPTEMPO,SIZRS,North
2014-07-28T07:59:31Z,1406534371,2014,8,0,209.333,209.333,72.86677,-140.7049,1025.9,-0.69,-999.0,yes,yes,no,300234061639650,UPTEMPO,PSC-UPTEMPO,SIZRS,North
2014-07-28T09:00:00Z,1406538000,2014,9,0,209.375,209.375,72.87671,-140.7183,1025.7,-0.88,-999.0,yes,yes,no,300234061639650,UPTEMPO,PSC-UPTEMPO,SIZRS,North
2014-07-28T10:00:28Z,1406541629,2014,10,0,209.417,209.417,72.88426,-140.7207,1026.0,-0.54,-999.0,yes,yes,no,300234061639650,UPTEMPO,PSC-UPTEMPO,SIZRS,North
2014-07-28T10:59:31Z,1406545171,2014,11,0,209.458,209.458,72.8871,-140.7213,1025.7,-0.02,-999.0,yes,yes,no,300234061639650,UPTEMPO,PSC-UPTEMPO,SIZRS,North
2014-07-28T12:00:00Z,1406548800,2014,12,0,209.5,209.5,72.88785,-140.7238,1025.7,-0.21,-999.0,yes,yes,no,300234061639650,UPTEMPO,PSC-UPTEMPO,SIZRS,North
2014-07-28T13:00:28Z,1406552429,2014,13,0,209.542,209.542,72.88786,-140.7308,1025.5,-0.34,-999.0,yes,yes,no,300234061639650,UPTEMPO,PSC-UPTEMPO,SIZRS,North
2014-07-28T13:59:31Z,1406555971,2014,14,0,209.583,209.583,72.88834,-140.7428,1025.4,-0.37,-999.0,yes,yes,no,300234061639650,UPTEMPO,PSC-UPTEMPO,SIZRS,North
2014-07-28T15:00:00Z,1406559600,2014,15,0,209.625,209.625,72.8893,-140.7574,1025.4,-0.28,-999.0,yes,yes,no,300234061639650,UPTEMPO,PSC-UPTEMPO,SIZRS,North
2014-07-28T16:00:28Z,1406563229,2014,16,0,209.667,209.667,72.89034,-140.7734,1025.3,-0.11,-999.0,yes,yes,no,300234061639650,UPTEMPO,PSC-UPTEMPO,SIZRS,North
2014-07-28T16:59:31Z,1406566771,2014,17,0,209.708,209.708,72.89194,-140.7917,1025.1,0.06,-999.0,yes,yes,no,300234061639650,UPTEMPO,PSC-UPTEMPO,SIZRS,North
2014-07-28T18:00:00Z,1406570400,2014,18,0,209.75,209.75,72.89507,-140.8118,1025.2,0.25,-999.0,yes,yes,no,300234061639650,UPTEMPO,PSC-UPTEMPO,SIZRS,North
2014-07-28T19:00:28Z,1406574029,2014,19,0,209.792,209.792,72.89989,-140.832,1025.2,-0.34,-999.0,yes,yes,no,300234061639650,UPTEMPO,PSC-UPTEMPO,SIZRS,North
2014-07-28T19:59:31Z,1406577571,2014,20,0,209.833,209.833,72.90702,-140.8558,1025.2,-0.14,-999.0,yes,yes,no,300234061639650,UPTEMPO,PSC-UPTEMPO,SIZRS,North
2014-07-28T21:00:00Z,1406581200,2014,21,0,209.875,209.875,72.91487,-140.8686,1024.9,-0.45,-999.0,yes,yes,no,300234061639650,UPTEMPO,PSC-UPTEMPO,SIZRS,North
2014-07-28T22:00:28Z,1406584829,2014,22,0,209.917,209.917,72.91962,-140.8716,1024.6,-0.56,-999.0,yes,yes,no,300234061639650,UPTEMPO,PSC-UPTEMPO,SIZRS,North
2014-07-28T22:59:31Z,1406588371,2014,23,0,209.958,209.958,72.92299,-140.8723,1024.5,-0.15,-999.0,yes,yes,no,300234061639650,UPTEMPO,PSC-UPTEMPO,SIZRS,North
2014-07-29T00:00:00Z,1406592000,2014,0,0,210.0,210.0,72.92476,-140.8733,1024.3,-0.15,-999.0,yes,yes,no,300234061639650,UPTEMPO,PSC-UPTEMPO,SIZRS,North
2014-07-29T01:00:28Z,1406595629,2014,1,0,210.042,210.042,72.92472,-140.8765,1024.2,-0.29,-999.0,yes,yes,no,300234061639650,UPTEMPO,PSC-UPTEMPO,SIZRS,North
2014-07-29T01:59:31Z,1406599171,2014,2,0,210.083,210.083,72.9236,-140.8836,1024.0,-0.15,-999.0,yes,yes,no,300234061639650,UPTEMPO,PSC-UPTEMPO,SIZRS,North
2014-07-29T03:00:00Z,1406602800,2014,3,0,210.125,210.125,72.92224,-140.8957,1023.5,-0.14,-999.0,yes,yes,no,300234061639650,UPTEMPO,PSC-UPTEMPO,SIZRS,North
2014-07-29T04:00:28Z,1406606429,2014,4,0,210.167,210.167,72.91604,-140.8998,1022.9,-0.31,-999.0,yes,yes,no,300234061639650,UPTEMPO,PSC-UPTEMPO,SIZRS,North
2014-07-29T04:59:31Z,1406609971,2014,5,0,210.208,210.208,72.91167,-140.9057,1022.5,-0.65,-999.0,yes,yes,no,300234061639650,UPTEMPO,PSC-UPTEMPO,SIZRS,North
2014-07-29T06:00:00Z,1406613600,2014,6,0,210.25,210.25,72.90866,-140.9089,1022.0,-0.75,-999.0,yes,yes,no,300234061639650,UPTEMPO,PSC-UPTEMPO,SIZRS,North
2014-07-29T07:00:28Z,1406617229,2014,7,0,210.292,210.292,72.90787,-140.9077,1021.4,-0.96,-999.0,yes,yes,no,300234061639650,UPTEMPO,PSC-UPTEMPO,SIZRS,North
2014-07-29T07:59:31Z,1406620771,2014,8,0,210.333,210.333,72.90845,-140.9033,1021.1,-0.88,-999.0,yes,yes,no,300234061639650,UPTEMPO,PSC-UPTEMPO,SIZRS,North
2014-07-29T09:00:00Z,1406624400,2014,9,0,210.375,210.375,72.90929,-140.8877,1020.6,-0.87,-999.0,yes,yes,no,300234061639650,UPTEMPO,PSC-UPTEMPO,SIZRS,North
2014-07-29T10:00:28Z,1406628029,2014,10,0,210.417,210.417,72.90922,-140.8554,1020.2,-0.99,-999.0,yes,yes,no,300234061639650,UPTEMPO,PSC-UPTEMPO,SIZRS,North
2014-07-29T10:59:31Z,1406631571,2014,11,0,210.458,210.458,72.90802,-140.8238,1019.8,-0.96,-999.0,yes,yes,no,300234061639650,UPTEMPO,PSC-UPTEMPO,SIZRS,North
2014-07-29T12:00:00Z,1406635200,2014,12,0,210.5,210.5,72.90392,-140.7946,1019.5,-0.96,-999.0,yes,yes,no,300234061639650,UPTEMPO,PSC-UPTEMPO,SIZRS,North
2014-07-29T13:00:28Z,1406638829,2014,13,0,210.542,210.542,72.89637,-140.7727,1019.2,-1.03,-999.0,yes,yes,no,300234061639650,UPTEMPO,PSC-UPTEMPO,SIZRS,North
2014-07-29T13:59:31Z,1406642371,2014,14,0,210.583,210.583,72.8865,-140.7616,1019.1,-1.04,-999.0,yes,yes,no,300234061639650,UPTEMPO,PSC-UPTEMPO,SIZRS,North
2014-07-29T15:00:00Z,1406646000,2014,15,0,210.625,210.625,72.87525,-140.7613,1019.2,-1.03,-999.0,yes,yes,no,300234061639650,UPTEMPO,PSC-UPTEMPO,SIZRS,North
2014-07-29T16:00:28Z,1406649629,2014,16,0,210.667,210.667,72.86299,-140.7752,1019.5,-1.03,-999.0,yes,yes,no,300234061639650,UPTEMPO,PSC-UPTEMPO,SIZRS,North
2014-07-29T16:59:31Z,1406653171,2014,17,0,210.708,210.708,72.8522,-140.802,1020.0,-0.99,-999.0,yes,yes,no,300234061639650,UPTEMPO,PSC-UPTEMPO,SIZRS,North
2014-07-29T18:00:00Z,1406656800,2014,18,0,210.75,210.75,72.84447,-140.8339,1020.5,-0.92,-999.0,yes,yes,no,300234061639650,UPTEMPO,PSC-UPTEMPO,SIZRS,North
2014-07-29T19:00:28Z,1406660429,2014,19,0,210.792,210.792,72.83997,-140.8624,1020.7,-0.91,-999.0,yes,yes,no,300234061639650,UPTEMPO,PSC-UPTEMPO,SIZRS,North
2014-07-29T19:59:31Z,1406663971,2014,20,0,210.833,210.833,72.83783,-140.881,1021.1,-0.91,-999.0,yes,yes,no,300234061639650,UPTEMPO,PSC-UPTEMPO,SIZRS,North
2014-07-29T21:00:00Z,1406667600,2014,21,0,210.875,210.875,72.83746,-140.8884,1021.4,-0.9,-999.0,yes,yes,no,300234061639650,UPTEMPO,PSC-UPTEMPO,SIZRS,North
2014-07-29T22:00:28Z,1406671229,2014,22,0,210.917,210.917,72.8373,-140.8794,1021.6,-0.9,-999.0,yes,yes,no,300234061639650,UPTEMPO,PSC-UPTEMPO,SIZRS,North
2014-07-29T22:59:31Z,1406674771,2014,23,0,210.958,210.958,72.83553,-140.8595,1021.8,-0.87,-999.0,yes,yes,no,300234061639650,UPTEMPO,PSC-UPTEMPO,SIZRS,North
2014-07-30T00:00:00Z,1406678400,2014,0,0,211.0,211.0,72.83051,-140.835,1022.0,-0.89,-999.0,yes,yes,no,300234061639650,UPTEMPO,PSC-UPTEMPO,SIZRS,North
2014-07-30T01:00:28Z,1406682029,2014,1,0,211.042,211.042,72.82201,-140.8125,1022.3,-0.91,-999.0,yes,yes,no,300234061639650,UPTEMPO,PSC-UPTEMPO,SIZRS,North
2014-07-30T01:59:31Z,1406685571,2014,2,0,211.083,211.083,72.81057,-140.7985,1022.4,-0.93,-999.0,yes,yes,no,300234061639650,UPTEMPO,PSC-UPTEMPO,SIZRS,North
2014-07-30T03:00:00Z,1406689200,2014,3,0,211.125,211.125,72.79688,-140.7917,1022.5,-0.92,-999.0,yes,yes,no,300234061639650,UPTEMPO,PSC-UPTEMPO,SIZRS,North
2014-07-30T04:00:28Z,1406692829,2014,4,0,211.167,211.167,72.78281,-140.7983,1022.8,-0.95,-999.0,yes,yes,no,300234061639650,UPTEMPO,PSC-UPTEMPO,SIZRS,North
2014-07-30T04:59:31Z,1406696371,2014,5,0,211.208,211.208,72.76945,-140.8156,1023.1,-0.96,-999.0,yes,yes,no,300234061639650,UPTEMPO,PSC-UPTEMPO,SIZRS,North
2014-07-30T06:00:00Z,1406700000,2014,6,0,211.25,211.25,72.75874,-140.8405,1023.4,-0.97,-999.0,yes,yes,no,300234061639650,UPTEMPO,PSC-UPTEMPO,SIZRS,North
2014-07-30T07:00:28Z,1406703629,2014,7,0,211.292,211.292,72.75163,-140.8695,1023.8,-0.97,-999.0,yes,yes,no,300234061639650,UPTEMPO,PSC-UPTEMPO,SIZRS,North
2014-07-30T07:59:31Z,1406707171,2014,8,0,211.333,211.333,72.74774,-140.8961,1024.0,-0.99,-999.0,yes,yes,no,300234061639650,UPTEMPO,PSC-UPTEMPO,SIZRS,North
2014-07-30T09:00:00Z,1406710800,2014,9,0,211.375,211.375,72.74611,-140.9179,1024.4,-1.03,-999.0,yes,yes,no,300234061639650,UPTEMPO,PSC-UPTEMPO,SIZRS,North
2014-07-30T10:00:28Z,1406714429,2014,10,0,211.417,211.417,72.74612,-140.9298,1024.7,-1.07,-999.0,yes,yes,no,300234061639650,UPTEMPO,PSC-UPTEMPO,SIZRS,North
2014-07-30T10:59:31Z,1406717971,2014,11,0,211.458,211.458,72.74664,-140.932,1024.9,-1.03,-999.0,yes,yes,no,300234061639650,UPTEMPO,PSC-UPTEMPO,SIZRS,North
2014-07-30T12:00:00Z,1406721600,2014,12,0,211.5,211.5,72.74601,-140.926,1025.2,-1.0,-999.0,yes,yes,no,300234061639650,UPTEMPO,PSC-UPTEMPO,SIZRS,North
2014-07-30T13:00:28Z,1406725229,2014,13,0,211.542,211.542,72.74294,-140.9154,1025.6,-1.04,-999.0,yes,yes,no,300234061639650,UPTEMPO,PSC-UPTEMPO,SIZRS,North
2014-07-30T13:59:31Z,1406728771,2014,14,0,211.583,211.583,72.7372,-140.9036,1026.1,-1.04,-999.0,yes,yes,no,300234061639650,UPTEMPO,PSC-UPTEMPO,SIZRS,North
2014-07-30T15:00:00Z,1406732400,2014,15,0,211.625,211.625,72.72826,-140.8963,1026.3,-1.08,-999.0,yes,yes,no,300234061639650,UPTEMPO,PSC-UPTEMPO,SIZRS,North
2014-07-30T16:00:28Z,1406736029,2014,16,0,211.667,211.667,72.71752,-140.8969,1026.6,-1.03,-999.0,yes,yes,no,300234061639650,UPTEMPO,PSC-UPTEMPO,SIZRS,North
2014-07-30T16:59:31Z,1406739571,2014,17,0,211.708,211.708,72.70695,-140.9098,1026.8,-1.01,-999.0,yes,yes,no,300234061639650,UPTEMPO,PSC-UPTEMPO,SIZRS,North
2014-07-30T18:00:00Z,1406743200,2014,18,0,211.75,211.75,72.69894,-140.9314,1027.0,-1.05,-999.0,yes,yes,no,300234061639650,UPTEMPO,PSC-UPTEMPO,SIZRS,North
2014-07-30T19:00:28Z,1406746829,2014,19,0,211.792,211.792,72.69366,-140.9569,1027.2,-0.97,-999.0,yes,yes,no,300234061639650,UPTEMPO,PSC-UPTEMPO,SIZRS,North
2014-07-30T19:59:31Z,1406750371,2014,20,0,211.833,211.833,72.69019,-140.9843,1027.6,-1.03,-999.0,yes,yes,no,300234061639650,UPTEMPO,PSC-UPTEMPO,SIZRS,North
2014-07-30T21:00:00Z,1406754000,2014,21,0,211.875,211.875,72.68967,-141.0084,1027.7,-1.03,-999.0,yes,yes,no,300234061639650,UPTEMPO,PSC-UPTEMPO,SIZRS,North
2014-07-30T22:00:28Z,1406757629,2014,22,0,211.917,211.917,72.69241,-141.0247,1028.0,-1.05,-999.0,yes,yes,no,300234061639650,UPTEMPO,PSC-UPTEMPO,SIZRS,North
2014-07-30T22:59:31Z,1406761171,2014,23,0,211.958,211.958,72.69559,-141.0312,1028.1,-0.92,-999.0,yes,yes,no,300234061639650,UPTEMPO,PSC-UPTEMPO,SIZRS,North
2014-07-31T00:00:00Z,1406764800,2014,0,0,212.0,212.0,72.6973,-141.0273,1028.1,-0.82,-999.0,yes,yes,no,300234061639650,UPTEMPO,PSC-UPTEMPO,SIZRS,North
2014-07-31T01:00:28Z,1406768429,2014,1,0,212.042,212.042,72.69671,-141.0194,1028.4,-0.81,-999.0,yes,yes,no,300234061639650,UPTEMPO,PSC-UPTEMPO,SIZRS,North
2014-07-31T01:59:31Z,1406771971,2014,2,0,212.083,212.083,72.69439,-141.0104,1028.3,-0.87,-999.0,yes,yes,no,300234061639650,UPTEMPO,PSC-UPTEMPO,SIZRS,North
2014-07-31T03:00:00Z,1406775600,2014,3,0,212.125,212.125,72.69055,-141.0042,1028.1,-0.87,-999.0,yes,yes,no,300234061639650,UPTEMPO,PSC-UPTEMPO,SIZRS,North
2014-07-31T04:00:28Z,1406779229,2014,4,0,212.167,212.167,72.68489,-141.0007,1027.8,-0.82,-999.0,yes,yes,no,300234061639650,UPTEMPO,PSC-UPTEMPO,SIZRS,North
2014-07-31T04:59:31Z,1406782771,2014,5,0,212.208,212.208,72.67921,-141.005,1027.6,-0.87,-999.0,yes,yes,no,300234061639650,UPTEMPO,PSC-UPTEMPO,SIZRS,North
2014-07-31T06:00:00Z,1406786400,2014,6,0,212.25,212.25,72.67518,-141.016,1027.4,-0.87,-999.0,yes,yes,no,300234061639650,UPTEMPO,PSC-UPTEMPO,SIZRS,North
2014-07-31T07:00:28Z,1406790029,2014,7,0,212.292,212.292,72.67236,-141.0314,1027.1,-0.88,-999.0,yes,yes,no,300234061639650,UPTEMPO,PSC-UPTEMPO,SIZRS,North